QPF
0.01 0.01 0.01 0.01 0.01 0.01 0.01 0.01 0.01 0.01 0.01 0.01 0.01 0.01 0.02 0.02 0.03 0.05 0.07 0.08 0.07 0.07 0.07 0.06 0.06 0.06 0.06 0.05 0.04 0.03 0.05 0.07 0.07 0.09 0.10 0.07 0.05 0.04 0.04 0.04 0.04 0.05 0.05 0.05
0.01 0.01 0.01 0.01 0.01 0.01 0.01 0.01 0.01 0.01 0.01 0.01 0.01 0.02 0.02 0.03 0.04 0.06 0.07 0.07 0.07 0.07 0.07 0.05 0.04 0.03 0.03 0.02 0.02 0.03 0.07 0.07 0.07 0.06 0.05 0.05 0.05 0.04 0.03 0.03 0.03 0.04 0.05 0.05
0.01 0.01 0.01 0.02 0.01 0.01 0.02 0.04 0.03 0.02 0.01 0.01 0.01 0.02 0.03 0.04 0.06 0.06 0.06 0.05 0.04 0.04 0.03 0.02 0.02 0.01 0.01 0.02 0.02 0.03 0.05 0.05 0.03 0.02 0.02 0.03 0.03 0.03 0.03 0.03 0.02 0.02 0.03 0.03
0.03 0.02 0.01 0.01 0.01 0.02 0.02 0.04 0.05 0.05 0.04 0.04 0.04 0.03 0.03 0.06 0.06 0.04 0.05 0.06 0.05 0.05 0.04 0.04 0.03 0.02 0.02 0.02 0.02 0.03 0.04 0.05 0.04 0.02 0.02 0.03 0.03 0.03 0.02 0.02 0.03 0.04 0.03 0.03
0.02 0.04 0.02 0.02 0.02 0.02 0.02 0.03 0.05 0.06 0.06 0.07 0.08 0.05 0.04 0.05 0.05 0.06 0.06 0.07 0.09 0.08 0.05 0.05 0.04 0.03 0.03 0.02 0.02 0.02 0.03 0.04 0.04 0.04 0.03 0.03 0.02 0.03 0.03 0.04 0.04 0.05 0.05 0.04
0.02 0.04 0.03 0.03 0.03 0.03 0.04 0.04 0.04 0.05 0.06 0.09 0.09 0.06 0.07 0.07 0.07 0.10 0.10 0.11 0.12 0.11 0.07 0.05 0.04 0.04 0.04 0.03 0.03 0.03 0.03 0.04 0.04 0.05 0.05 0.04 0.03 0.03 0.03 0.03 0.03 0.04 0.04 0.04
0.02 0.03 0.03 0.04 0.04 0.03 0.04 0.05 0.04 0.05 0.05 0.08 0.09 0.06 0.08 0.10 0.11 0.13 0.13 0.12 0.12 0.11 0.09 0.06 0.05 0.05 0.05 0.05 0.05 0.05 0.05 0.04 0.03 0.03 0.05 0.06 0.06 0.05 0.03 0.02 0.02 0.03 0.03 0.03
0.03 0.03 0.03 0.03 0.04 0.04 0.05 0.04 0.06 0.06 0.05 0.08 0.10 0.07 0.05 0.08 0.09 0.09 0.08 0.09 0.10 0.12 0.10 0.07 0.05 0.05 0.05 0.05 0.05 0.05 0.05 0.03 0.03 0.02 0.03 0.05 0.07 0.06 0.03 0.03 0.03 0.03 0.03 0.03
0.03 0.04 0.03 0.04 0.04 0.04 0.03 0.03 0.05 0.07 0.05 0.05 0.06 0.05 0.05 0.05 0.06 0.06 0.05 0.07 0.09 0.11 0.10 0.08 0.06 0.05 0.05 0.05 0.05 0.05 0.04 0.04 0.04 0.04 0.03 0.05 0.06 0.05 0.04 0.04 0.04 0.04 0.03 0.03
0.03 0.04 0.03 0.04 0.03 0.03 0.02 0.02 0.03 0.05 0.06 0.05 0.06 0.05 0.05 0.05 0.06 0.06 0.05 0.05 0.08 0.10 0.10 0.09 0.09 0.08 0.07 0.06 0.06 0.06 0.06 0.06 0.06 0.06 0.05 0.07 0.08 0.06 0.04 0.03 0.04 0.04 0.03 0.03
0.02 0.02 0.02 0.03 0.03 0.03 0.03 0.02 0.02 0.03 0.04 0.06 0.07 0.06 0.06 0.06 0.05 0.05 0.06 0.07 0.07 0.07 0.09 0.11 0.11 0.09 0.08 0.07 0.06 0.06 0.06 0.06 0.07 0.08 0.07 0.09 0.12 0.09 0.06 0.04 0.03 0.04 0.04 0.03
0.02 0.02 0.02 0.02 0.03 0.03 0.03 0.03 0.03 0.03 0.03 0.04 0.05 0.05 0.05 0.05 0.03 0.04 0.05 0.05 0.06 0.06 0.08 0.10 0.11 0.10 0.08 0.06 0.06 0.06 0.06 0.07 0.09 0.09 0.09 0.09 0.11 0.10 0.10 0.07 0.04 0.04 0.04 0.04
0.02 0.02 0.02 0.02 0.02 0.02 0.02 0.02 0.02 0.02 0.02 0.03 0.03 0.03 0.03 0.03 0.02 0.02 0.02 0.03 0.04 0.05 0.07 0.09 0.09 0.09 0.10 0.09 0.08 0.07 0.05 0.07 0.10 0.12 0.11 0.10 0.09 0.08 0.07 0.07 0.05 0.04 0.04 0.03
0.02 0.02 0.02 0.02 0.02 0.02 0.01 0.01 0.01 0.01 0.01 0.01 0.02 0.03 0.04 0.03 0.02 0.02 0.02 0.03 0.03 0.04 0.04 0.05 0.06 0.06 0.07 0.08 0.08 0.08 0.07 0.07 0.09 0.12 0.13 0.11 0.11 0.10 0.06 0.05 0.04 0.04 0.04 0.03
0.01 0.02 0.02 0.02 0.02 0.02 0.01 0.01 0.01 0.01 0.01 0.01 0.01 0.02 0.03 0.03 0.02 0.02 0.02 0.02 0.02 0.02 0.02 0.03 0.03 0.03 0.04 0.04 0.04 0.06 0.07 0.08 0.08 0.10 0.11 0.10 0.08 0.08 0.07 0.05 0.04 0.03 0.03 0.03
0.01 0.01 0.01 0.01 0.02 0.02 0.01 0.01 0.01 0.01 0.01 0.01 0.00 0.01 0.01 0.01 0.01 0.01 0.01 0.01 0.01 0.01 0.02 0.02 0.02 0.02 0.02 0.02 0.01 0.02 0.05 0.08 0.08 0.08 0.09 0.09 0.07 0.06 0.06 0.05 0.04 0.03 0.02 0.02
0.02 0.02 0.02 0.02 0.03 0.02 0.01 0.01 0.01 0.01 0.01 0.00 0.00 0.00 0.01 0.01 0.01 0.01 0.02 0.01 0.01 0.01 0.01 0.02 0.02 0.01 0.01 0.01 0.01 0.01 0.01 0.02 0.04 0.05 0.06 0.07 0.06 0.04 0.04 0.03 0.03 0.02 0.02 0.02
0.01 0.02 0.02 0.03 0.04 0.03 0.02 0.01 0.01 0.01 0.01 0.00 0.00 0.00 0.01 0.01 0.01 0.01 0.01 0.01 0.01 0.01 0.01 0.01 0.02 0.01 0.01 0.01 0.01 0.01 0.01 0.01 0.02 0.02 0.03 0.04 0.04 0.03 0.02 0.02 0.01 0.01 0.01 0.01
0.01 0.01 0.02 0.03 0.04 0.03 0.02 0.01 0.01 0.01 0.00 0.00 0.00 0.01 0.01 0.01 0.01 0.01 0.01 0.01 0.01 0.01 0.00 0.01 0.01 0.01 0.01 0.01 0.01 0.01 0.01 0.02 0.02 0.04 0.04 0.04 0.04 0.03 0.03 0.02 0.01 0.01 0.01 0.00
0.00 0.00 0.01 0.02 0.04 0.05 0.04 0.03 0.02 0.01 0.01 0.02 0.01 0.01 0.01 0.01 0.01 0.01 0.01 0.01 0.02 0.01 0.01 0.00 0.01 0.01 0.01 0.01 0.01 0.01 0.02 0.03 0.03 0.05 0.06 0.04 0.04 0.03 0.02 0.01 0.01 0.00 0.00 0.00
0.01 0.01 0.01 0.02 0.04 0.06 0.06 0.05 0.04 0.03 0.02 0.03 0.02 0.01 0.01 0.01 0.01 0.01 0.01 0.01 0.01 0.01 0.01 0.01 0.01 0.01 0.01 0.01 0.02 0.01 0.01 0.01 0.02 0.03 0.06 0.04 0.03 0.02 0.01 0.00 0.00 0.00 0.00 0.00
0.01 0.02 0.02 0.02 0.03 0.05 0.06 0.05 0.04 0.03 0.03 0.02 0.02 0.01 0.01 0.01 0.01 0.02 0.02 0.01 0.01 0.01 0.01 0.01 0.01 0.01 0.01 0.01 0.01 0.02 0.02 0.01 0.01 0.03 0.07 0.07 0.03 0.02 0.01 0.00 0.00 0.00 0.00 0.00
0.01 0.02 0.02 0.01 0.01 0.03 0.04 0.04 0.04 0.03 0.03 0.02 0.02 0.02 0.01 0.01 0.02 0.03 0.03 0.02 0.01 0.01 0.01 0.01 0.01 0.01 0.01 0.01 0.01 0.02 0.03 0.03 0.03 0.03 0.06 0.09 0.05 0.03 0.02 0.01 0.01 0.01 0.01 0.01
0.02 0.02 0.02 0.01 0.00 0.01 0.02 0.03 0.03 0.02 0.02 0.02 0.02 0.02 0.02 0.02 0.02 0.03 0.03 0.02 0.02 0.02 0.01 0.01 0.01 0.01 0.01 0.01 0.01 0.02 0.03 0.04 0.04 0.05 0.07 0.10 0.10 0.05 0.02 0.02 0.01 0.01 0.01 0.01
0.02 0.02 0.01 0.00 0.00 0.00 0.01 0.01 0.02 0.02 0.01 0.01 0.02 0.03 0.03 0.03 0.02 0.03 0.02 0.02 0.02 0.03 0.01 0.01 0.01 0.01 0.01 0.01 0.01 0.02 0.02 0.03 0.03 0.04 0.05 0.07 0.11 0.09 0.03 0.01 0.01 0.01 0.01 0.01
0.03 0.02 0.01 0.01 0.01 0.00 0.00 0.00 0.01 0.01 0.01 0.01 0.02 0.03 0.03 0.03 0.03 0.03 0.02 0.03 0.03 0.02 0.01 0.01 0.01 0.01 0.01 0.00 0.00 0.00 0.01 0.01 0.02 0.03 0.04 0.04 0.07 0.10 0.07 0.02 0.01 0.01 0.01 0.01
0.04 0.03 0.02 0.02 0.02 0.01 0.01 0.01 0.01 0.01 0.01 0.01 0.01 0.02 0.02 0.03 0.03 0.03 0.03 0.04 0.04 0.03 0.02 0.01 0.02 0.01 0.01 0.00 0.00 0.00 0.00 0.00 0.01 0.01 0.03 0.03 0.03 0.07 0.09 0.06 0.02 0.01 0.00 0.00
MSLP
1011.35 1010.55 1009.72 1008.88 1008.04 1007.20 1006.36 1005.53 1004.73 1003.98 1003.33 1002.80 1002.43 1002.24 1002.22 1002.36 1002.61 1002.91 1003.22 1003.46 1003.59 1003.61 1003.51 1003.32 1003.06 1002.78 1002.52 1002.29 1002.11 1001.98 1001.87 1001.76 1001.65 1001.50 1001.34 1001.18 1001.05 1000.98 1001.00 1001.15 1001.43 1001.83 1002.35 1002.95
1011.36 1010.43 1009.43 1008.40 1007.35 1006.33 1005.36 1004.46 1003.67 1003.02 1002.52 1002.20 1002.07 1002.11 1002.29 1002.59 1002.93 1003.27 1003.56 1003.76 1003.83 1003.79 1003.64 1003.41 1003.15 1002.88 1002.65 1002.46 1002.31 1002.19 1002.09 1001.97 1001.83 1001.65 1001.44 1001.22 1001.02 1000.88 1000.83 1000.89 1001.08 1001.39 1001.81 1002.33
1011.35 1010.31 1009.18 1008.00 1006.81 1005.66 1004.60 1003.67 1002.90 1002.34 1001.99 1001.85 1001.91 1002.14 1002.48 1002.89 1003.30 1003.66 1003.93 1004.07 1004.08 1003.97 1003.76 1003.49 1003.20 1002.93 1002.68 1002.49 1002.33 1002.19 1002.06 1001.90 1001.72 1001.49 1001.24 1000.98 1000.74 1000.56 1000.47 1000.48 1000.62 1000.88 1001.25 1001.70
1011.37 1010.27 1009.06 1007.79 1006.51 1005.30 1004.20 1003.27 1002.55 1002.07 1001.83 1001.83 1002.03 1002.39 1002.83 1003.31 1003.75 1004.11 1004.34 1004.43 1004.38 1004.21 1003.94 1003.62 1003.29 1002.97 1002.69 1002.44 1002.22 1002.02 1001.81 1001.57 1001.31 1001.03 1000.72 1000.43 1000.17 999.98 999.89 999.90 1000.03 1000.28 1000.64 1001.09
1011.47 1010.33 1009.09 1007.80 1006.51 1005.30 1004.21 1003.32 1002.66 1002.25 1002.09 1002.16 1002.44 1002.85 1003.34 1003.83 1004.26 1004.59 1004.79 1004.83 1004.72 1004.50 1004.19 1003.82 1003.44 1003.06 1002.71 1002.37 1002.05 1001.74 1001.41 1001.07 1000.71 1000.34 999.98 999.65 999.39 999.21 999.15 999.20 999.37 999.66 1000.05 1000.52
1011.60 1010.47 1009.26 1008.00 1006.76 1005.61 1004.59 1003.76 1003.16 1002.80 1002.69 1002.79 1003.08 1003.49 1003.95 1004.41 1004.80 1005.08 1005.22 1005.22 1005.08 1004.82 1004.48 1004.08 1003.65 1003.22 1002.78 1002.34 1001.90 1001.45 1000.99 1000.52 1000.04 999.57 999.15 998.80 998.53 998.39 998.37 998.49 998.74 999.10 999.55 1000.08
1011.70 1010.62 1009.47 1008.31 1007.17 1006.12 1005.20 1004.46 1003.93 1003.62 1003.52 1003.61 1003.86 1004.21 1004.60 1004.98 1005.29 1005.51 1005.60 1005.56 1005.40 1005.13 1004.78 1004.37 1003.92 1003.43 1002.92 1002.39 1001.84 1001.26 1000.66 1000.06 999.47 998.92 998.43 998.06 997.80 997.69 997.74 997.93 998.26 998.70 999.24 999.85
1011.67 1010.66 1009.62 1008.59 1007.60 1006.70 1005.91 1005.28 1004.82 1004.54 1004.44 1004.50 1004.67 1004.93 1005.22 1005.49 1005.71 1005.85 1005.89 1005.82 1005.65 1005.39 1005.06 1004.66 1004.20 1003.70 1003.15 1002.56 1001.92 1001.24 1000.54 999.84 999.16 998.54 998.02 997.62 997.38 997.31 997.41 997.67 998.07 998.59 999.21 999.88
1011.42 1010.51 1009.60 1008.73 1007.92 1007.18 1006.55 1006.05 1005.67 1005.43 1005.32 1005.33 1005.42 1005.57 1005.73 1005.89 1006.02 1006.08 1006.07 1005.99 1005.83 1005.60 1005.30 1004.94 1004.52 1004.03 1003.48 1002.87 1002.19 1001.47 1000.71 999.96 999.24 998.58 998.04 997.65 997.42 997.38 997.52 997.83 998.28 998.86 999.52 1000.25
1010.88 1010.09 1009.34 1008.64 1008.02 1007.47 1007.01 1006.64 1006.36 1006.17 1006.06 1006.02 1006.03 1006.08 1006.14 1006.20 1006.23 1006.23 1006.19 1006.10 1005.96 1005.77 1005.52 1005.22 1004.85 1004.42 1003.91 1003.33 1002.67 1001.96 1001.21 1000.46 999.75 999.11 998.59 998.21 998.00 997.98 998.14 998.47 998.94 999.53 1000.21 1000.94
1010.07 1009.39 1008.80 1008.29 1007.86 1007.51 1007.22 1006.99 1006.81 1006.68 1006.59 1006.53 1006.49 1006.47 1006.45 1006.42 1006.39 1006.35 1006.28 1006.19 1006.08 1005.94 1005.75 1005.52 1005.23 1004.87 1004.44 1003.93 1003.34 1002.70 1002.02 1001.34 1000.68 1000.10 999.63 999.29 999.11 999.11 999.27 999.59 1000.04 1000.60 1001.25 1001.95
1009.03 1008.48 1008.05 1007.71 1007.47 1007.29 1007.17 1007.09 1007.02 1006.96 1006.91 1006.86 1006.81 1006.75 1006.68 1006.62 1006.55 1006.48 1006.41 1006.34 1006.26 1006.16 1006.03 1005.87 1005.66 1005.39 1005.05 1004.64 1004.16 1003.63 1003.06 1002.49 1001.95 1001.46 1001.07 1000.79 1000.65 1000.66 1000.81 1001.09 1001.50 1002.00 1002.58 1003.21
1007.90 1007.47 1007.17 1007.00 1006.92 1006.91 1006.94 1006.99 1007.03 1007.06 1007.07 1007.06 1007.02 1006.96 1006.90 1006.82 1006.75 1006.69 1006.63 1006.58 1006.52 1006.46 1006.39 1006.28 1006.14 1005.95 1005.71 1005.40 1005.05 1004.66 1004.24 1003.81 1003.40 1003.04 1002.75 1002.54 1002.45 1002.47 1002.60 1002.84 1003.19 1003.61 1004.10 1004.64
1006.79 1006.47 1006.30 1006.26 1006.32 1006.44 1006.60 1006.77 1006.92 1007.04 1007.12 1007.16 1007.17 1007.15 1007.11 1007.07 1007.03 1006.98 1006.95 1006.92 1006.89 1006.86 1006.82 1006.75 1006.66 1006.54 1006.38 1006.18 1005.95 1005.69 1005.41 1005.14 1004.88 1004.65 1004.48 1004.36 1004.32 1004.36 1004.48 1004.68 1004.96 1005.29 1005.69 1006.13
1005.82 1005.60 1005.54 1005.60 1005.77 1006.00 1006.26 1006.52 1006.76 1006.96 1007.11 1007.22 1007.30 1007.34 1007.36 1007.37 1007.37 1007.37 1007.36 1007.36 1007.35 1007.34 1007.31 1007.27 1007.20 1007.12 1007.02 1006.91 1006.78 1006.64 1006.50 1006.38 1006.26 1006.17 1006.11 1006.08 1006.10 1006.17 1006.28 1006.45 1006.67 1006.93 1007.24 1007.58
1005.08 1004.94 1004.96 1005.11 1005.35 1005.65 1005.98 1006.30 1006.61 1006.87 1007.10 1007.28 1007.42 1007.54 1007.63 1007.70 1007.76 1007.81 1007.84 1007.87 1007.87 1007.87 1007.84 1007.80 1007.75 1007.69 1007.62 1007.56 1007.51 1007.47 1007.45 1007.44 1007.45 1007.47 1007.51 1007.58 1007.65 1007.75 1007.87 1008.02 1008.19 1008.40 1008.63 1008.90
1004.58 1004.52 1004.60 1004.79 1005.08 1005.43 1005.79 1006.16 1006.51 1006.83 1007.10 1007.35 1007.56 1007.75 1007.91 1008.05 1008.17 1008.27 1008.34 1008.39 1008.42 1008.41 1008.38 1008.34 1008.28 1008.22 1008.17 1008.14 1008.14 1008.16 1008.21 1008.29 1008.40 1008.52 1008.64 1008.77 1008.90 1009.03 1009.16 1009.30 1009.44 1009.61 1009.79 1010.00
1004.30 1004.30 1004.42 1004.65 1004.96 1005.33 1005.71 1006.10 1006.47 1006.82 1007.14 1007.44 1007.71 1007.96 1008.18 1008.39 1008.56 1008.71 1008.83 1008.91 1008.94 1008.94 1008.91 1008.85 1008.78 1008.72 1008.67 1008.65 1008.67 1008.73 1008.83 1008.96 1009.12 1009.30 1009.49 1009.67 1009.83 1009.98 1010.12 1010.25 1010.37 1010.50 1010.65 1010.81
1004.18 1004.22 1004.37 1004.63 1004.95 1005.31 1005.70 1006.10 1006.48 1006.86 1007.21 1007.54 1007.86 1008.16 1008.44 1008.69 1008.92 1009.11 1009.26 1009.37 1009.42 1009.43 1009.39 1009.33 1009.25 1009.18 1009.13 1009.11 1009.13 1009.20 1009.32 1009.47 1009.66 1009.86 1010.07 1010.27 1010.45 1010.61 1010.74 1010.86 1010.96 1011.06 1011.17 1011.30
1004.11 1004.19 1004.37 1004.64 1004.96 1005.33 1005.73 1006.13 1006.52 1006.91 1007.28 1007.65 1008.00 1008.34 1008.66 1008.95 1009.22 1009.44 1009.62 1009.75 1009.82 1009.84 1009.81 1009.76 1009.68 1009.61 1009.55 1009.52 1009.54 1009.61 1009.72 1009.87 1010.05 1010.25 1010.45 1010.64 1010.81 1010.95 1011.07 1011.17 1011.24 1011.32 1011.39 1011.48
1004.04 1004.14 1004.34 1004.62 1004.96 1005.33 1005.73 1006.14 1006.55 1006.96 1007.36 1007.75 1008.12 1008.48 1008.83 1009.15 1009.44 1009.69 1009.89 1010.03 1010.12 1010.16 1010.15 1010.11 1010.04 1009.98 1009.92 1009.90 1009.91 1009.96 1010.06 1010.19 1010.34 1010.51 1010.68 1010.84 1010.98 1011.09 1011.17 1011.24 1011.28 1011.32 1011.36 1011.42
1003.89 1004.02 1004.24 1004.53 1004.88 1005.28 1005.70 1006.13 1006.56 1006.99 1007.41 1007.82 1008.22 1008.59 1008.95 1009.28 1009.58 1009.83 1010.04 1010.20 1010.30 1010.36 1010.37 1010.35 1010.31 1010.27 1010.23 1010.21 1010.22 1010.26 1010.33 1010.43 1010.55 1010.68 1010.80 1010.91 1011.00 1011.07 1011.12 1011.14 1011.15 1011.16 1011.17 1011.19
1003.65 1003.79 1004.03 1004.35 1004.73 1005.15 1005.61 1006.07 1006.54 1007.00 1007.45 1007.88 1008.28 1008.66 1009.02 1009.34 1009.63 1009.87 1010.08 1010.24 1010.35 1010.43 1010.46 1010.47 1010.46 1010.44 1010.42 1010.41 1010.43 1010.46 1010.51 1010.58 1010.66 1010.75 1010.82 1010.89 1010.93 1010.96 1010.96 1010.95 1010.93 1010.91 1010.89 1010.89
1003.31 1003.48 1003.74 1004.09 1004.51 1004.97 1005.47 1005.98 1006.49 1006.98 1007.46 1007.90 1008.31 1008.69 1009.02 1009.33 1009.59 1009.81 1010.00 1010.15 1010.26 1010.35 1010.40 1010.44 1010.45 1010.47 1010.48 1010.49 1010.51 1010.55 1010.59 1010.63 1010.68 1010.73 1010.76 1010.79 1010.79 1010.78 1010.76 1010.72 1010.69 1010.65 1010.62 1010.61
1002.90 1003.10 1003.39 1003.78 1004.24 1004.76 1005.31 1005.87 1006.42 1006.95 1007.45 1007.90 1008.31 1008.67 1008.98 1009.25 1009.48 1009.67 1009.82 1009.95 1010.06 1010.14 1010.21 1010.26 1010.31 1010.35 1010.39 1010.42 1010.46 1010.50 1010.54 1010.57 1010.60 1010.62 1010.63 1010.63 1010.61 1010.58 1010.55 1010.51 1010.47 1010.44 1010.42 1010.42
1002.47 1002.70 1003.03 1003.46 1003.98 1004.55 1005.15 1005.76 1006.35 1006.91 1007.43 1007.89 1008.28 1008.62 1008.90 1009.13 1009.31 1009.46 1009.58 1009.68 1009.77 1009.84 1009.92 1009.99 1010.05 1010.12 1010.18 1010.24 1010.29 1010.34 1010.38 1010.41 1010.43 1010.43 1010.43 1010.42 1010.40 1010.38 1010.35 1010.33 1010.31 1010.31 1010.32 1010.34
1002.04 1002.30 1002.68 1003.17 1003.73 1004.35 1005.00 1005.66 1006.29 1006.87 1007.40 1007.86 1008.24 1008.55 1008.80 1008.98 1009.12 1009.23 1009.31 1009.39 1009.45 1009.52 1009.60 1009.67 1009.75 1009.84 1009.92 1009.99 1010.06 1010.11 1010.15 1010.18 1010.20 1010.20 1010.20 1010.19 1010.19 1010.18 1010.18 1010.19 1010.21 1010.25 1010.30 1010.37
Thickness
5665 5672 5673 5672 5671 5672 5666 5664 5659 5666 5669 5677 5681 5684 5687 5689 5690 5691 5691 5693 5694 5694 5693 5692 5692 5691 5690 5689 5689 5687 5685 5683 5682 5680 5678 5676 5674 5673 5671 5669 5667 5665 5664 5662
5656 5665 5666 5663 5666 5668 5666 5666 5664 5665 5667 5676 5678 5680 5680 5681 5682 5682 5684 5685 5686 5687 5687 5687 5686 5686 5685 5684 5683 5682 5679 5677 5676 5674 5672 5670 5668 5667 5665 5663 5661 5659 5658 5656
5639 5652 5655 5646 5656 5660 5660 5661 5660 5657 5662 5669 5671 5672 5672 5673 5674 5676 5677 5679 5680 5680 5681 5681 5682 5682 5680 5680 5678 5676 5674 5673 5671 5669 5666 5664 5663 5661 5658 5656 5655 5653 5652 5650
5628 5638 5631 5644 5658 5659 5655 5655 5657 5658 5660 5662 5664 5665 5667 5668 5669 5670 5672 5673 5674 5675 5675 5675 5676 5676 5675 5673 5672 5670 5668 5667 5666 5664 5661 5659 5657 5655 5653 5650 5648 5647 5646 5644
5616 5621 5630 5642 5648 5647 5646 5646 5651 5651 5653 5655 5658 5660 5659 5662 5663 5663 5664 5666 5668 5669 5669 5669 5669 5669 5668 5666 5665 5664 5662 5660 5659 5658 5656 5653 5651 5649 5647 5645 5642 5641 5640 5638
5610 5615 5619 5630 5641 5647 5645 5637 5645 5645 5645 5646 5649 5646 5647 5653 5655 5656 5657 5659 5661 5661 5661 5662 5661 5661 5659 5658 5657 5657 5656 5655 5653 5651 5649 5647 5645 5643 5641 5640 5638 5636 5634 5633
5604 5609 5616 5626 5634 5641 5629 5628 5638 5639 5639 5639 5638 5639 5640 5644 5647 5648 5649 5650 5652 5653 5653 5654 5654 5652 5651 5650 5650 5650 5649 5648 5645 5643 5642 5641 5639 5637 5635 5634 5633 5631 5629 5627
5597 5601 5607 5621 5625 5623 5622 5628 5631 5632 5632 5631 5632 5633 5634 5636 5637 5639 5640 5641 5643 5644 5644 5645 5646 5645 5643 5642 5643 5642 5641 5640 5638 5636 5635 5634 5632 5630 5629 5627 5626 5624 5622 5620
5595 5598 5607 5611 5615 5618 5620 5622 5624 5624 5625 5625 5625 5625 5626 5626 5627 5629 5631 5632 5633 5634 5635 5636 5636 5636 5635 5634 5634 5634 5633 5631 5630 5629 5628 5626 5625 5623 5621 5620 5619 5617 5616 5614
5592 5598 5603 5607 5610 5613 5615 5616 5617 5618 5618 5618 5617 5617 5617 5617 5618 5619 5621 5622 5624 5625 5626 5626 5626 5627 5627 5627 5627 5626 5625 5624 5623 5621 5619 5618 5617 5616 5615 5614 5613 5612 5610 5609
5586 5593 5598 5602 5603 5605 5607 5609 5609 5610 5610 5609 5609 5608 5608 5608 5609 5610 5612 5613 5614 5615 5616 5617 5618 5619 5620 5620 5620 5618 5617 5617 5615 5614 5612 5610 5609 5608 5608 5608 5607 5606 5605 5604
5581 5587 5587 5591 5597 5599 5599 5600 5601 5601 5601 5601 5601 5600 5600 5599 5600 5601 5602 5604 5605 5606 5608 5609 5609 5610 5612 5612 5613 5612 5611 5610 5609 5607 5606 5604 5603 5601 5601 5601 5600 5600 5599 5598
5580 5584 5584 5587 5590 5592 5593 5593 5594 5595 5594 5593 5593 5593 5592 5591 5591 5592 5593 5595 5596 5598 5599 5600 5601 5602 5603 5604 5605 5605 5604 5604 5602 5601 5600 5599 5597 5596 5595 5594 5594 5593 5593 5592
5577 5578 5578 5581 5583 5585 5586 5587 5587 5587 5586 5586 5585 5585 5584 5583 5583 5583 5585 5587 5589 5590 5591 5592 5592 5593 5594 5595 5596 5597 5597 5597 5595 5594 5593 5593 5592 5591 5589 5589 5588 5588 5587 5586
5571 5573 5573 5575 5577 5578 5578 5578 5577 5577 5576 5576 5577 5577 5576 5576 5575 5576 5578 5580 5582 5583 5583 5584 5584 5585 5587 5588 5589 5589 5589 5589 5588 5587 5587 5586 5586 5585 5583 5583 5582 5581 5581 5581
5564 5566 5567 5568 5569 5569 5569 5569 5569 5568 5568 5568 5568 5568 5569 5569 5568 5569 5571 5572 5573 5574 5575 5576 5577 5578 5580 5581 5581 5582 5582 5582 5581 5580 5580 5580 5579 5578 5577 5577 5576 5575 5574 5574
5557 5558 5559 5559 5560 5561 5561 5562 5562 5562 5561 5561 5561 5561 5561 5560 5560 5561 5563 5564 5566 5568 5569 5569 5570 5572 5573 5573 5574 5574 5574 5574 5575 5574 5573 5573 5573 5572 5571 5570 5570 5569 5569 5568
5555 5554 5554 5554 5554 5554 5555 5555 5555 5555 5554 5555 5555 5555 5554 5553 5553 5555 5556 5558 5560 5561 5562 5563 5564 5565 5566 5566 5566 5566 5566 5566 5567 5566 5566 5566 5566 5566 5566 5565 5565 5564 5564 5563
5551 5551 5550 5549 5549 5548 5548 5548 5548 5548 5548 5548 5548 5547 5547 5547 5548 5549 5550 5551 5553 5554 5556 5557 5557 5558 5558 5559 5559 5558 5558 5559 5558 5558 5558 5559 5559 5560 5559 5559 5559 5558 5558 5557
5545 5545 5545 5544 5543 5543 5542 5543 5542 5541 5541 5540 5540 5539 5539 5540 5541 5542 5543 5544 5545 5547 5549 5549 5550 5550 5551 5551 5551 5551 5551 5551 5551 5551 5551 5552 5553 5553 5553 5553 5553 5552 5552 5551
5540 5540 5539 5538 5537 5537 5537 5537 5536 5535 5534 5534 5533 5533 5533 5534 5535 5536 5536 5538 5540 5541 5542 5543 5543 5543 5543 5544 5544 5544 5544 5544 5544 5543 5544 5545 5546 5547 5547 5547 5547 5546 5546 5545
5535 5534 5533 5532 5531 5530 5530 5530 5529 5529 5528 5527 5528 5528 5528 5529 5529 5529 5530 5531 5534 5535 5536 5536 5536 5536 5536 5536 5536 5536 5537 5537 5537 5537 5537 5538 5539 5540 5540 5541 5540 5540 5539 5539
5529 5529 5528 5527 5525 5523 5523 5523 5523 5522 5521 5521 5521 5522 5522 5522 5523 5523 5525 5527 5528 5529 5530 5530 5530 5530 5530 5530 5529 5530 5530 5530 5530 5530 5531 5531 5532 5533 5534 5534 5534 5533 5533 5532
5524 5523 5522 5521 5519 5518 5517 5517 5516 5516 5515 5515 5516 5516 5516 5517 5518 5519 5520 5521 5522 5523 5524 5524 5524 5524 5523 5523 5523 5523 5524 5524 5524 5524 5525 5525 5526 5526 5526 5527 5527 5526 5526 5525
5519 5519 5518 5516 5514 5513 5512 5511 5510 5510 5510 5510 5511 5512 5512 5512 5513 5514 5515 5516 5517 5518 5518 5518 5518 5517 5517 5517 5517 5517 5517 5518 5518 5518 5519 5519 5519 5519 5519 5519 5519 5519 5518 5518
5514 5513 5512 5512 5510 5508 5507 5506 5504 5504 5504 5505 5506 5508 5508 5508 5509 5510 5510 5512 5513 5512 5512 5511 5511 5511 5511 5511 5511 5511 5512 5512 5512 5512 5512 5512 5512 5512 5512 5512 5512 5512 5511 5511
5508 5507 5506 5505 5505 5504 5503 5502 5501 5500 5500 5501 5502 5503 5504 5504 5504 5505 5506 5507 5507 5506 5506 5505 5505 5504 5504 5505 5505 5506 5505 5505 5505 5505 5505 5505 5505 5506 5505 5505 5505 5505 5504 5504